Location: Arbon
(43.0005°N, 0.7472°E)
Time: 09:30:44
(UTC+00:00)

Vanguard 2 Rocket - Pass Details

Date: 27 November 2020
Orbit: 554 x 3325 km, 32.9° (Epoch: 21 January)

Event Time Altitude Azimuth Distance (km) Brightness Sun altitude
Rises 12:50:47 0° 274° (W) 6,911 11.6 24.0°
Reaches altitude 10° 12:56:15 10° 268° (W) 5,558 11.2 23.7°
Maximum altitude 13:09:52 39° 208° (SSW) 2,663 11.1 22.8°
Drops below altitude 10° 13:18:12 10° 142° (SE) 3,421 10.3 22.2°
Sets 13:20:45 0° 134° (SE) 4,090 10.5 22.0°
